Epoch 2022 June 30.0 TT = JDT 2459760.5
T 2022 July 9.68356 TT Rudenko
q 0.6028269 (2000.0) P Q
n 0.23478522 Peri. 218.04390 +0.82675427 -0.56240589
a 2.6022891 Node 176.10666 +0.55214224 +0.80668188
e 0.7683474 Incl. 11.29900 +0.10777901 +0.18155980
P 4.20
From 1249 observations 1989 Mar. 7-2021 Apr. 9, mean residual 0".7.
Finding Charts
Magnitudes Graph
H = 15.3 G = 0.15 [ ,-61] ( - 2022 May 9)
m1 = 15.8 + 5 log d + 20.0 log r [-61, 50] (2022 May 9 - 2022 Aug. 28)
H = 15.3 G = 0.15 [ 50, ] (2022 Aug. 28 - )
The orbital elements are published on M.P.E.C. 2021-J28.
The charts are made with StellaNavigator Ver.10 (AstroArts).
The magnitudes graphs are made with Comet for Windows.
Copyright(C) Seiichi Yoshida (comet@aerith.net). All rights reserved.